Overview Statistics Trail Chart Weather Telemetry Raw packets
 

This is the latest recevied weather packets stored in our database for station/object W8KVG. If no packets are shown the sender has not sent any weather packets the latest 10 day(s).

<< 18 19 20 21 22 23 24 >>
Time Temp. Humidity Pressure Rain* Wind** Luminosity Snow
1777818125 8.89° C 54% 1016.5 hPa 0 mm - 39 W/m² -
1777817822 9.44° C 56% 1016.7 hPa 0 mm - 38 W/m² -
1777817520 9.44° C 59% 1016.5 hPa 0 mm - 38 W/m² -
1777817216 8.89° C 63% 1016.6 hPa 0 mm - 38 W/m² -
1777816913 8.89° C 56% 1016.8 hPa 0 mm - 37 W/m² -
1777816610 8.33° C 60% 1016.8 hPa 0 mm - 37 W/m² -
1777816307 8.33° C 63% 1016.8 hPa 0 mm - 37 W/m² -
1777816004 8.33° C 62% 1016.8 hPa 0 mm - 36 W/m² -
1777815702 7.78° C 64% 1016.8 hPa 0 mm - 36 W/m² -
1777815399 7.22° C 66% 1016.7 hPa 0 mm - 35 W/m² -
1777815096 7.22° C 66% 1016.9 hPa 0 mm - 35 W/m² -
1777814792 7.22° C 69% 1016.9 hPa 0 mm - 35 W/m² -
1777814489 6.67° C 69% 1017.3 hPa 0 mm - 34 W/m² -
1777814186 6.67° C 69% 1017 hPa 0 mm - 34 W/m² -
1777813883 6.67° C 72% 1016.9 hPa 0 mm - 33 W/m² -
1777813581 6.11° C 73% 1016.9 hPa 0 mm - 33 W/m² -
1777813278 6.11° C 74% 1017 hPa 0 mm - 33 W/m² -
1777812975 6.11° C 75% 1016.8 hPa 0 mm - 32 W/m² -
1777812673 5.56° C 77% 1016.8 hPa 0 mm - 32 W/m² -
1777812369 5.56° C 79% 1016.8 hPa 0 mm - 31 W/m² -
1777812068 5.56° C 79% 1016.7 hPa 0 mm - 31 W/m² -
1777811766 5° C 79% 1016.7 hPa 0 mm - 30 W/m² -
1777811462 4.44° C 81% 1016.7 hPa 0 mm - 30 W/m² -
1777811158 4.44° C 82% 1016.6 hPa 0 mm - 30 W/m² -
1777810856 3.89° C 84% 1016.6 hPa 0 mm - 29 W/m² -

* Rain latest hour (hover to see other rain measurements)
** Current wind speed in m/s (hover to see current wind gust speed)